Date,Pressure,Depth,Temperature,Conductivity,Salinity,Fluorescence,timeJ,Latitude,Longitude,Irradiance,Transmission,Density,Oxygen_ml/l,Oxygen_umol/kg
2015-07-21T09:06:00,2.000,-2.0,25.7608,5.819027,38.1732,0.0628,202,43.24,5.29,2.7992e+03,96.4072,25.5133,4.71300,204.752
2015-07-21T09:06:00,3.000,-3.0,25.4645,5.783817,38.1677,0.0617,202,43.24,5.29,9.9418e+02,96.2641,25.5958,4.79027,208.095
2015-07-21T09:06:00,4.000,-4.0,25.3416,5.769630,38.1680,0.0558,202,43.24,5.29,9.4212e+02,96.3097,25.6321,4.98275,216.451
2015-07-21T09:06:00,5.000,-5.0,25.2935,5.764013,38.1676,0.0492,202,43.24,5.29,5.9373e+02,96.7005,25.6457,5.07343,220.388
2015-07-21T09:06:00,6.000,-6.0,25.1850,5.751615,38.1678,0.0457,202,43.24,5.29,8.1541e+02,96.9845,25.6782,4.79943,208.480
2015-07-21T09:06:00,7.000,-6.9,25.1660,5.749168,38.1656,0.0431,202,43.24,5.29,5.7190e+02,97.1333,25.6821,4.75041,206.350
2015-07-21T09:06:00,8.000,-7.9,24.6850,5.693828,38.1653,0.0431,202,43.24,5.29,6.4027e+02,97.3958,25.8225,4.84915,210.617
2015-07-21T09:06:00,9.000,-8.9,24.1889,5.636549,38.1606,0.0445,202,43.24,5.29,6.1320e+02,97.5122,25.9641,4.89557,212.613
2015-07-21T09:06:00,10.000,-9.9,24.0604,5.619192,38.1389,0.0459,202,43.24,5.29,5.0172e+02,97.6060,25.9851,4.87941,211.909
2015-07-21T09:06:00,11.000,-10.9,23.3640,5.538548,38.1288,0.0433,202,43.24,5.29,5.5669e+02,97.6464,26.1753,5.02386,218.157
2015-07-21T09:06:00,12.000,-11.9,22.4414,5.431082,38.1014,0.0453,202,43.24,5.29,5.6437e+02,97.7474,26.4152,5.20729,226.094
2015-07-21T09:06:00,13.000,-12.9,21.8061,5.358986,38.0973,0.0442,202,43.24,5.29,4.5125e+02,97.8073,26.5850,5.33145,231.466
2015-07-21T09:06:00,14.000,-13.9,21.4937,5.323783,38.0892,0.0408,202,43.24,5.29,4.7283e+02,97.9948,26.6682,5.30972,230.514
2015-07-21T09:06:00,15.000,-14.9,21.2554,5.296762,38.0795,0.0397,202,43.24,5.29,4.1320e+02,97.9559,26.7293,5.09146,221.034
2015-07-21T09:06:00,16.000,-15.9,20.8020,5.246200,38.0762,0.0371,202,43.24,5.29,4.1269e+02,98.1545,26.8501,4.78718,207.814
2015-07-21T09:06:00,17.000,-16.9,20.6502,5.229509,38.0698,0.0341,202,43.24,5.29,4.3247e+02,98.2349,26.8912,5.41814,235.201
2015-07-21T09:06:00,18.000,-17.9,20.1178,5.170985,38.0720,0.0332,202,43.24,5.29,3.3785e+02,98.2956,27.0333,5.55944,241.324
2015-07-21T09:06:00,19.000,-18.9,19.7252,5.128451,38.0766,0.0380,202,43.24,5.29,3.4112e+02,98.3796,27.1401,5.46127,237.054
2015-07-21T09:06:00,20.000,-19.8,19.5029,5.103205,38.0633,0.0432,202,43.24,5.29,3.0392e+02,98.3725,27.1922,5.52997,240.033
2015-07-21T09:06:00,21.000,-20.8,18.7171,5.015695,38.0519,0.0391,202,43.24,5.29,3.1544e+02,98.3383,27.3818,5.85051,253.938
2015-07-21T09:06:00,22.000,-21.8,18.2754,4.968508,38.0600,0.0428,202,43.24,5.29,2.9532e+02,98.2068,27.4984,6.00515,260.644
2015-07-21T09:06:00,23.000,-22.8,18.0360,4.942294,38.0511,0.0414,202,43.24,5.29,2.8702e+02,98.1889,27.5559,5.99747,260.309
2015-07-21T09:06:00,24.000,-23.8,17.6407,4.899253,38.0477,0.0414,202,43.24,5.29,2.5115e+02,98.1506,27.6512,5.85185,253.986
2015-07-21T09:06:00,25.000,-24.8,17.4641,4.878495,38.0243,0.0369,202,43.24,5.29,2.3678e+02,98.1736,27.6827,6.05674,262.881
2015-07-21T09:06:00,26.000,-25.8,17.3228,4.864557,38.0308,0.0334,202,43.24,5.29,2.2817e+02,98.2932,27.7253,6.00373,260.577
2015-07-21T09:06:00,27.000,-26.8,17.1201,4.844393,38.0428,0.0317,202,43.24,5.29,2.0431e+02,98.3327,27.7852,6.24019,270.837
2015-07-21T09:06:00,28.000,-27.8,17.1131,4.845620,38.0510,0.0336,202,43.24,5.29,2.0231e+02,98.4030,27.8001,6.11977,265.607
2015-07-21T09:06:00,29.000,-28.8,17.1528,4.851708,38.0582,0.0366,202,43.24,5.29,1.7155e+02,98.3994,27.8026,6.33623,274.999
2015-07-21T09:06:00,30.000,-29.8,16.9487,4.830365,38.0633,0.0369,202,43.24,5.29,1.7643e+02,98.4023,27.8556,6.06691,263.308
2015-07-21T09:06:00,31.000,-30.8,16.5911,4.788867,38.0374,0.0397,202,43.24,5.29,1.6736e+02,98.4808,27.9189,6.19110,268.704
2015-07-21T09:06:00,32.000,-31.7,16.3568,4.762906,38.0276,0.0443,202,43.24,5.29,1.5302e+02,98.5197,27.9679,6.10959,265.168
2015-07-21T09:06:00,33.000,-32.7,16.3791,4.764785,38.0166,0.0414,202,43.24,5.29,1.4582e+02,98.6380,27.9587,5.91170,256.580
2015-07-21T09:06:00,34.000,-33.7,16.0529,4.729211,38.0123,0.0423,202,43.24,5.29,1.3828e+02,98.5853,28.0296,6.14261,266.604
2015-07-21T09:06:00,35.000,-34.7,15.8700,4.710451,38.0169,0.0476,202,43.24,5.29,1.3273e+02,98.6555,28.0768,6.11907,265.582
2015-07-21T09:06:00,36.000,-35.7,15.7853,4.701585,38.0152,0.0503,202,43.24,5.29,1.2028e+02,98.5152,28.0970,5.92883,257.325
2015-07-21T09:06:00,37.000,-36.7,15.6629,4.689113,38.0175,0.0612,202,43.24,5.29,1.1814e+02,98.4338,28.1288,6.02309,261.416
2015-07-21T09:06:00,38.000,-37.7,15.6489,4.687932,38.0149,0.0597,202,43.24,5.29,1.1141e+02,98.5322,28.1338,6.28548,272.804
2015-07-21T09:06:00,39.000,-38.7,15.5467,4.677524,38.0182,0.0578,202,43.24,5.29,1.0012e+02,98.4718,28.1601,6.00685,260.710
2015-07-21T09:06:00,40.000,-39.7,15.5109,4.673731,38.0149,0.0656,202,43.24,5.29,9.5195e+01,98.2828,28.1680,6.08885,264.270
2015-07-21T09:06:00,41.000,-40.7,15.4927,4.671864,38.0112,0.0665,202,43.24,5.29,9.2352e+01,98.2096,28.1723,6.11240,265.292
2015-07-21T09:06:00,42.000,-41.7,15.4372,4.666091,38.0110,0.0705,202,43.24,5.29,8.4620e+01,98.2887,28.1855,6.22896,270.351
2015-07-21T09:06:00,43.000,-42.7,15.3947,4.661770,38.0109,0.0759,202,43.24,5.29,7.8365e+01,98.3628,28.1963,6.13804,266.405
2015-07-21T09:06:00,44.000,-43.6,15.2957,4.651593,38.0129,0.0780,202,43.24,5.29,7.7165e+01,98.4471,28.2206,5.98796,259.891
2015-07-21T09:06:00,45.000,-44.6,15.1782,4.639741,38.0183,0.0751,202,43.24,5.29,6.7062e+01,98.4906,28.2511,6.21632,269.803
2015-07-21T09:06:00,46.000,-45.6,15.1615,4.637956,38.0157,0.0745,202,43.24,5.29,6.3219e+01,98.5459,28.2545,6.05460,262.784
2015-07-21T09:06:00,47.000,-46.6,15.1081,4.632773,38.0187,0.0771,202,43.24,5.29,6.2767e+01,98.5794,28.2696,6.10409,264.932
2015-07-21T09:06:00,48.000,-47.6,15.0443,4.626746,38.0245,0.0870,202,43.24,5.29,5.8875e+01,98.5517,28.2887,5.97498,259.327
2015-07-21T09:06:00,49.000,-48.6,15.0405,4.626432,38.0227,0.1019,202,43.24,5.29,5.3415e+01,98.1033,28.2899,6.20769,269.427
2015-07-21T09:06:00,50.000,-49.6,15.0066,4.623289,38.0260,0.1199,202,43.24,5.29,5.1875e+01,97.7112,28.3005,6.07131,263.508
2015-07-21T09:06:00,51.000,-50.6,14.9295,4.615810,38.0320,0.1357,202,43.24,5.29,4.7201e+01,97.2082,28.3222,6.10278,264.873
2015-07-21T09:06:00,52.000,-51.6,14.8956,4.612894,38.0368,0.1423,202,43.24,5.29,4.2791e+01,96.6778,28.3342,6.13977,266.478
2015-07-21T09:06:00,53.000,-52.6,14.9062,4.613944,38.0334,0.1810,202,43.24,5.29,3.9206e+01,96.0487,28.3311,6.04189,262.230
2015-07-21T09:06:00,54.000,-53.6,14.6048,4.585660,38.0714,0.2339,202,43.24,5.29,3.6357e+01,93.6779,28.4232,5.88670,255.492
2015-07-21T09:06:00,55.000,-54.5,14.5620,4.581291,38.0705,0.2969,202,43.24,5.29,3.0448e+01,92.0357,28.4334,6.07791,263.791
2015-07-21T09:06:00,56.000,-55.6,14.4059,4.567184,38.0938,0.2649,202,43.24,5.29,2.7156e+01,91.6219,28.4845,5.84387,253.631
2015-07-21T09:06:00,57.000,-56.5,14.2777,4.555541,38.1111,0.2479,202,43.24,5.29,2.4106e+01,90.8426,28.5258,5.92336,257.079
2015-07-21T09:06:00,58.000,-57.5,14.2935,4.556966,38.0996,0.2399,202,43.24,5.29,1.9541e+01,88.4078,28.5202,5.73530,248.917
